Blue Canyon, CA

6:29 PM PST on December 10, 2019 (GMT -0800)
Blue Canyon-Nyack

Weather History for KBLU - November, 2019

Change the Weather History Date:

Friday, November 15, 2019

  Actual Average Record
Temperature  
Mean Temperature 50 °F -  
Max Temperature 55 °F 47 °F 73 °F (2008)
Min Temperature 44 °F 36 °F 16 °F (1955)
Degree Days  
Heating Degree Days 16    
Moisture  
Dew Point 32 °F    
Average Humidity 51    
Maximum Humidity 71    
Minimum Humidity 32    
Precipitation  
Precipitation 0.00 in - - ()
Sea Level Pressure  
Sea Level Pressure 30.12 in    
Wind  
Wind Speed 5 mph ()    
Max Wind Speed 9 mph    
Max Gust Speed -    
Visibility 10.0 miles    
Events      
Averages and records for this station are not official NWS values.
T = Trace of Precipitation, MM = Missing Value Source: Averaged Metar Reports

Daily Weather History Graph

Daily Weather History Graph

Search for Another Location

Airport or City:

Astronomy

Nov. 15, 2019 Rise Set
Actual Time 6:46 AM PST 4:48 PM PST
Civil Twilight 6:17 AM PST 5:16 PM PST
Nautical Twilight 5:45 AM PST 5:49 PM PST
Astronomical Twilight 5:13 AM PST 6:20 PM PST
Moon 7:29 PM PST (11/15) 9:47 AM PST (11/15)
Length of Visible Light 10h 59m
Length of Day
10h 02m
Waning Gibbous, 89% of the Moon is Illuminated
Nov 15
Waning Gibbous
Nov 19
Last Quarter
Nov 26
New
Dec 3
First Quarter
Dec 11
Full

Hourly Weather History & Observations

Time (PST) Temp. Windchill Dew Point Humidity Pressure Visibility Wind Dir Wind Speed Gust Speed Precip Events Conditions
12:52 AM 44.1 °F 40.8 °F 33.1 °F 65% 30.07 in 10.0 mi South 5.8 mph - N/A   Clear
1:52 AM 45.0 °F 40.6 °F 33.1 °F 63% 30.08 in 10.0 mi SSE 8.1 mph - N/A   Clear
2:52 AM 45.0 °F 42.6 °F 33.1 °F 63% 30.10 in 10.0 mi SSE 4.6 mph - N/A   Partly Cloudy
3:52 AM 45.0 °F 42.6 °F 33.1 °F 63% 30.11 in 10.0 mi SE 4.6 mph - N/A   Mostly Cloudy
4:52 AM 45.0 °F - 33.1 °F 63% 30.12 in 10.0 mi Calm Calm - N/A   Overcast
5:52 AM 45.0 °F 43.5 °F 33.1 °F 63% 30.14 in 10.0 mi SE 3.5 mph - N/A   Clear
6:52 AM 45.0 °F 43.5 °F 33.1 °F 63% 30.14 in 10.0 mi SE 3.5 mph - N/A   Clear
8:52 AM 48.9 °F - 30.9 °F 50% 30.14 in 10.0 mi Variable 3.5 mph - N/A   Partly Cloudy
9:52 AM 52.0 °F - 28.9 °F 41% 30.15 in 10.0 mi South 9.2 mph - N/A   Clear
10:52 AM 53.1 °F - 30.9 °F 43% 30.15 in 10.0 mi South 9.2 mph - N/A   Clear
11:52 AM 54.0 °F - 30.0 °F 40% 30.14 in 10.0 mi Variable 6.9 mph - N/A   Clear
12:52 PM 55.9 °F - 33.1 °F 42% 30.12 in 10.0 mi Variable 5.8 mph - N/A   Clear
1:52 PM 55.9 °F - 36.0 °F 47% 30.10 in 10.0 mi West 5.8 mph - N/A   Clear
2:52 PM 55.0 °F - 37.0 °F 51% 30.12 in 10.0 mi West 6.9 mph - N/A   Clear
3:52 PM 53.1 °F - 39.0 °F 59% 30.12 in 10.0 mi WNW 5.8 mph - N/A   Clear
4:52 PM 50.0 °F - 41.0 °F 71% 30.14 in 10.0 mi North 3.5 mph - N/A   Clear
5:52 PM 51.1 °F - 39.0 °F 63% 30.13 in 10.0 mi Variable 3.5 mph - N/A   Clear
6:52 PM 52.0 °F - 33.1 °F 49% 30.13 in 10.0 mi Variable 5.8 mph - N/A   Clear
7:52 PM 52.0 °F - 26.1 °F 37% 30.14 in 10.0 mi ENE 3.5 mph - N/A   Clear
8:52 PM 52.0 °F - 23.0 °F 32% 30.12 in 10.0 mi ENE 5.8 mph - N/A   Clear
9:52 PM 51.1 °F - 23.0 °F 33% 30.13 in 10.0 mi ENE 5.8 mph - N/A   Clear
10:52 PM 48.9 °F - 24.1 °F 38% 30.14 in 10.0 mi Variable 5.8 mph - N/A   Clear
11:52 PM 51.1 °F - 25.0 °F 36% 30.11 in 10.0 mi ENE 8.1 mph - N/A   Clear